Location: ??????
(38.3184°N, 23.6932°E)
Time: 00:57:27
(UTC+00:00)

Cosmos 371 Rocket - Pass Details

Date: 16 October 2021
Orbit: 684 x 699 km, 74.0° (Epoch: 04 December)

Event Time Altitude Azimuth Distance (km) Brightness Sun altitude
Rises 17:42:22 0° 196° (SSW) 3,045 6.7 -23.6°
Reaches altitude 10° 17:44:39 10° 196° (SSW) 2,135 5.9 -24.0°
Maximum altitude 17:49:28 89° 114° (ESE) 699 3.1 -25.0°
Enters shadow 17:50:01 71° 21° (NNE) 735 3.2 -25.1°
